Weather reports worldwide

Advertisment
El Dorado, ar, United States of America (2074428): temperature & dewpoint: 13.09.2019 12:00:00 - 19.09.2019 12:00:00 (CDT)El Dorado, ar, United States of America (2074428): wind speed: 13.09.2019 12:00:00 - 19.09.2019 12:00:00 (CDT)El Dorado, ar, United States of America (2074428): wind direction: 13.09.2019 12:00:00 - 19.09.2019 12:00:00 (CDT)El Dorado, ar, United States of America (2074428): reduced air pressure: 13.09.2019 12:00:00 - 19.09.2019 12:00:00 (CDT)El Dorado, ar, United States of America (2074428): visibility: 13.09.2019 12:00:00 - 19.09.2019 12:00:00 (CDT)El Dorado, ar, United States of America (2074428): precipitation: 13.09.2019 12:00:00 - 19.09.2019 12:00:00 (CDT)
Date & Time tt [°C] td [°C] ff [km/h] ff [kn] dd ppp [hPa] vv [km] rr [mm]
19.09.2019 12:00:00 30,0 22,8 11 6 E 1015,8 16 -
19.09.2019 11:00:00 30,0 22,8 15 8 E 1015,9 16 -
19.09.2019 10:00:00 28,3 22,2 8 4 S 1015,7 16 -
19.09.2019 09:00:00 26,1 22,2 8 4 SE 1015,3 16 0,0
19.09.2019 08:00:00 22,2 22,2 5 3 ENE 1014,8 15 -
19.09.2019 07:00:00 21,1 21,1 0 0 N 1014,5 16 -
19.09.2019 06:00:00 21,1 21,1 0 0 N 1014,2 16 -
19.09.2019 05:00:00 21,1 21,1 0 0 N 1013,9 16 0,0
19.09.2019 04:00:00 21,7 21,7 0 0 N 1013,9 16 0,0
19.09.2019 03:00:00 21,7 21,7 0 0 N 1014,1 16 0,0
19.09.2019 02:00:00 22,2 22,2 0 0 N 1014,3 16 0,0
19.09.2019 01:00:00 22,8 22,2 5 3 NE 1014,2 16 0,0
19.09.2019 00:00:00 23,3 22,8 5 3 E 1014,4 16 -
18.09.2019 23:00:00 23,9 22,8 5 3 ESE 1014,5 16 -
18.09.2019 22:00:00 23,9 22,8 5 3 ESE 1014,1 16 0,0
18.09.2019 21:00:00 25,6 22,2 8 4 SE 1014,0 16 0,0
18.09.2019 20:00:00 26,1 22,2 8 4 SSE 1013,7 16 -
18.09.2019 19:00:00 27,2 22,2 13 7 S 1013,2 16 0,0
18.09.2019 18:00:00 28,9 22,8 15 8 SSE 1013,3 16 0,0
18.09.2019 17:00:00 31,1 22,8 26 14 S 1013,2 16 -
18.09.2019 16:00:00 33,9 21,1 16 9 SSE 1012,7 16 -
18.09.2019 15:00:00 35,6 20,6 15 8 E 1012,8 16 -
18.09.2019 14:00:00 34,4 21,1 16 9 SSE 1013,3 16 -
18.09.2019 13:00:00 33,9 22,8 5 3 - 1014,5 16 -
18.09.2019 12:00:00 31,7 23,3 11 6 ENE 1015,2 16 0,0
18.09.2019 11:00:00 30,0 23,3 8 4 - 1015,6 16 -
18.09.2019 10:00:00 27,8 23,3 11 6 ESE 1015,9 16 -
18.09.2019 09:00:00 25,6 22,2 5 3 SSE 1015,9 16 -
18.09.2019 08:00:00 22,8 22,2 0 0 N 1015,5 16 -
18.09.2019 07:00:00 21,1 21,1 0 0 N 1015,3 16 -
18.09.2019 06:00:00 20,6 20,6 0 0 N 1014,6 16 0,0
18.09.2019 05:00:00 21,1 20,6 0 0 N 1014,1 16 -
18.09.2019 04:00:00 21,1 21,1 0 0 N 1014,1 16 0,0
18.09.2019 03:00:00 22,8 21,1 0 0 N 1014,2 16 -
18.09.2019 02:00:00 22,8 21,1 0 0 N 1014,4 16 -
18.09.2019 01:00:00 23,3 21,1 0 0 N 1014,3 16 -
18.09.2019 00:00:00 25,6 20,6 5 3 SSE 1014,4 16 -
17.09.2019 23:00:00 25,6 20,6 0 0 N 1014,6 16 -
17.09.2019 22:00:00 25,6 20,6 0 0 N 1014,5 16 -
17.09.2019 21:00:00 27,8 21,1 0 0 N 1013,8 16 0,0
17.09.2019 20:00:00 30,0 20,6 5 3 SE 1013,3 16 0,0
17.09.2019 19:00:00 32,8 20,0 8 4 ESE 1013,0 16 -
17.09.2019 18:00:00 35,0 19,4 13 7 E 1013,0 16 -
17.09.2019 17:00:00 35,0 20,0 9 5 ESE 1013,3 16 -
17.09.2019 16:00:00 34,4 19,4 15 8 E 1013,9 16 -
17.09.2019 15:00:00 35,6 18,9 18 10 E 1014,5 16 -
17.09.2019 14:00:00 35,0 20,6 13 7 SE 1015,5 16 -
17.09.2019 13:00:00 35,0 21,7 11 6 E 1016,2 16 -
17.09.2019 12:00:00 34,4 21,7 16 9 E 1016,9 16 -
17.09.2019 11:00:00 31,7 22,2 8 4 - 1017,6 16 -
17.09.2019 10:00:00 30,0 22,8 5 3 NE 1017,5 16 -
17.09.2019 09:00:00 27,8 22,2 9 5 NE 1017,2 16 -
17.09.2019 08:00:00 22,2 21,7 0 0 N 1017,1 13 0,0
17.09.2019 07:00:00 20,6 20,6 0 0 N 1016,7 15 -
17.09.2019 06:00:00 20,6 20,6 5 3 NNW 1016,3 13 -
17.09.2019 05:00:00 21,1 20,6 0 0 N 1015,8 15 -
17.09.2019 04:00:00 21,7 21,1 0 0 N 1015,5 15 -
17.09.2019 03:00:00 22,2 21,1 0 0 N 1015,2 16 -
17.09.2019 02:00:00 22,8 21,1 0 0 N 1015,4 16 -
17.09.2019 01:00:00 24,4 21,1 0 0 N 1015,5 16 -
17.09.2019 00:00:00 26,7 20,6 11 6 SSE 1015,3 16 -
16.09.2019 23:00:00 25,0 21,1 0 0 N 1015,3 16 -
16.09.2019 22:00:00 25,6 21,7 0 0 N 1015,1 16 -
16.09.2019 21:00:00 26,1 21,7 0 0 N 1014,9 16 0,0
16.09.2019 20:00:00 28,3 21,7 0 0 N 1014,6 16 -
16.09.2019 19:00:00 32,2 20,6 9 5 E 1014,3 16 -
16.09.2019 18:00:00 34,4 20,6 13 7 ENE 1014,5 16 -
16.09.2019 17:00:00 35,0 20,0 16 9 E 1014,5 16 -
16.09.2019 16:00:00 34,4 20,6 15 8 ENE 1015,1 16 -
16.09.2019 15:00:00 36,1 20,6 21 11 ENE 1015,8 16 -
16.09.2019 14:00:00 36,1 20,6 13 7 E 1016,7 16 0,0
16.09.2019 13:00:00 34,4 21,1 13 7 E 1017,7 16 -
16.09.2019 12:00:00 32,8 21,7 13 7 E 1018,3 16 0,0
16.09.2019 11:00:00 32,8 22,2 13 7 ENE 1018,7 16 0,0
16.09.2019 10:00:00 30,0 22,8 5 3 - 1018,7 16 0,0
16.09.2019 09:00:00 27,2 22,2 9 5 NE 1018,6 15 0,0
16.09.2019 08:00:00 22,8 21,7 0 0 N 1018,4 10 0,0
16.09.2019 07:00:00 21,1 21,1 0 0 N 1018,0 11 0,0
16.09.2019 06:00:00 21,1 21,1 0 0 N 1017,6 11 0,0
16.09.2019 05:00:00 21,1 21,1 0 0 N 1017,4 11 -
16.09.2019 04:00:00 21,7 21,1 0 0 N 1017,3 15 -
16.09.2019 03:00:00 21,7 21,1 0 0 N 1017,2 15 -
16.09.2019 02:00:00 23,3 21,7 0 0 N 1017,3 15 -
16.09.2019 01:00:00 23,9 21,7 0 0 N 1017,2 16 0,0
16.09.2019 00:00:00 24,4 21,7 0 0 N 1017,2 16 0,0
15.09.2019 23:00:00 24,4 22,2 0 0 N 1017,3 16 -
15.09.2019 22:00:00 25,0 22,2 0 0 N 1016,9 16 -
15.09.2019 21:00:00 - - - - - - - -
15.09.2019 20:00:00 - - - - - - - -
15.09.2019 19:00:00 - - - - - - - -
15.09.2019 18:00:00 - - - - - - - -
15.09.2019 17:00:00 - - - - - - - -
15.09.2019 16:00:00 - - - - - - - -
15.09.2019 15:00:00 - - - - - - - -
15.09.2019 14:00:00 - - - - - - - -
15.09.2019 13:00:00 - - - - - - - -
15.09.2019 12:00:00 - - - - - - - -
15.09.2019 11:00:00 - - - - - - - -
15.09.2019 10:00:00 - - - - - - - -
15.09.2019 09:00:00 - - - - - - - -
15.09.2019 08:00:00 - - - - - - - -
15.09.2019 07:00:00 - - - - - - - -
15.09.2019 06:00:00 - - - - - - - -
15.09.2019 05:00:00 - - - - - - - -
15.09.2019 04:00:00 - - - - - - - -
15.09.2019 03:00:00 - - - - - - - -
15.09.2019 02:00:00 - - - - - - - -
15.09.2019 01:00:00 - - - - - - - -
15.09.2019 00:00:00 - - - - - - - -
14.09.2019 23:00:00 - - - - - - - -
14.09.2019 22:00:00 - - - - - - - -
14.09.2019 21:00:00 - - - - - - - -
14.09.2019 20:00:00 - - - - - - - -
14.09.2019 19:00:00 - - - - - - - -
14.09.2019 18:00:00 - - - - - - - -
14.09.2019 17:00:00 - - - - - - - -
14.09.2019 16:00:00 - - - - - - - -
14.09.2019 15:00:00 37,2 20,0 16 9 ENE 1018,5 16 -
14.09.2019 14:00:00 36,7 21,7 18 10 NE 1019,3 16 -
14.09.2019 13:00:00 35,0 21,7 11 6 ENE 1020,1 16 -
14.09.2019 12:00:00 33,3 22,2 13 7 ENE 1020,9 16 -
14.09.2019 11:00:00 32,8 22,2 13 7 ENE 1021,3 16 -
14.09.2019 10:00:00 28,9 22,2 11 6 NNE 1021,5 16 -
14.09.2019 09:00:00 26,7 22,2 9 5 NE 1021,7 16 -
14.09.2019 08:00:00 23,3 21,7 5 3 NNE 1021,3 15 -
14.09.2019 07:00:00 22,2 21,1 0 0 N 1020,6 16 -
14.09.2019 06:00:00 22,8 20,6 0 0 N 1020,6 16 -
14.09.2019 05:00:00 22,2 20,6 8 4 N 1020,2 16 -
14.09.2019 04:00:00 22,8 21,1 5 3 - 1019,7 16 -
14.09.2019 03:00:00 23,9 21,1 0 0 N 1019,6 16 -
14.09.2019 02:00:00 24,4 20,6 0 0 N 1019,7 16 -
14.09.2019 01:00:00 24,4 20,6 5 3 ENE 1019,8 16 -
14.09.2019 00:00:00 23,9 21,1 0 0 N 1019,9 16 -
13.09.2019 23:00:00 25,0 20,6 0 0 N 1019,8 16 -
13.09.2019 22:00:00 25,0 21,1 5 3 ENE 1019,6 16 -
13.09.2019 21:00:00 26,7 21,1 5 3 NNE 1019,2 16 -
13.09.2019 20:00:00 27,8 21,1 8 4 NE 1018,8 16 -
13.09.2019 19:00:00 31,7 20,0 9 5 NE 1018,4 16 -
13.09.2019 18:00:00 33,9 19,4 13 7 NNE 1018,3 16 -
13.09.2019 17:00:00 33,3 20,0 9 5 NE 1018,3 16 -
13.09.2019 16:00:00 37,8 17,8 13 7 NNE 1018,4 16 -
13.09.2019 15:00:00 35,6 18,3 8 4 NE 1019,2 16 -
13.09.2019 14:00:00 35,0 20,0 11 6 E 1020,2 16 -
13.09.2019 13:00:00 34,4 19,4 0 0 N 1020,9 16 -
13.09.2019 12:00:00 34,4 20,6 11 6 WNW 1021,3 16 -

tt = temperature
td = dewpoint
ff = wind speed
dd = wind direction
ppp = reduced air pressure
vv = visibility
rr = precipitation

Next stations